Wind_Speed
20 20 21 23 23 21 21 23 21 19 18 19 18 19 20 20 23 23 21 19 20 24 26 26 26 24 19 17 16 15 14 15 17 16 13 11 12 15 19 21 23 23 23 24 25 25 23 20 18 16 12 9 8 9 9 9 9 8 8 7 8 8 8 7 7 7 8 9 10 11 12 13 14 14 15 15 16 17 18 19 21 23 24 27 29 30
23 24 26 27 24 22 21 20 20 20 20 20 19 19 20 21 24 23 21 21 23 26 28 25 24 22 19 19 18 16 14 14 15 14 12 12 15 20 23 24 25 25 24 23 23 21 18 15 13 10 8 6 6 6 6 6 6 5 5 6 6 7 8 8 8 8 8 9 10 11 13 14 15 16 17 17 17 17 18 18 19 20 22 24 25 27
25 27 26 23 19 19 20 21 22 22 22 20 19 20 21 22 23 21 20 21 20 21 22 21 23 23 22 21 20 18 15 13 13 13 14 16 21 25 25 24 25 25 25 24 21 17 14 11 9 7 7 6 6 5 5 5 5 5 6 6 7 8 9 10 10 10 10 10 10 11 12 14 15 17 18 19 20 19 19 19 19 20 21 22 23 25
26 24 20 16 15 17 18 19 21 21 21 20 19 20 22 23 21 20 20 17 17 18 19 21 24 25 24 23 22 19 14 11 13 15 18 21 24 25 24 24 24 25 25 23 19 15 12 9 8 8 7 6 6 5 5 5 6 6 7 8 8 9 10 10 11 11 11 10 10 9 10 11 12 14 17 18 19 20 20 19 19 19 20 20 21 21
26 22 19 18 18 19 18 18 20 21 20 18 19 21 23 22 20 21 20 17 18 19 19 22 24 27 26 20 16 16 15 13 14 18 20 21 22 24 24 24 23 24 23 20 16 13 11 9 8 8 7 6 5 5 6 6 7 8 8 8 9 10 11 11 12 12 11 11 10 9 9 9 9 11 13 15 16 17 18 18 17 17 18 18 19 19
25 20 19 20 20 19 19 19 20 19 18 17 19 20 20 18 17 19 18 19 21 19 18 17 13 17 20 13 13 19 20 17 16 18 19 19 21 23 25 24 22 23 22 18 14 12 12 10 10 9 8 7 6 7 7 8 8 8 8 9 9 10 11 13 13 13 13 13 12 11 10 9 9 10 11 12 14 15 16 16 16 16 17 17 18 19
24 20 19 20 19 18 17 18 19 17 17 18 18 15 14 14 15 15 16 17 16 13 13 10 9 15 17 15 19 22 19 18 17 17 18 19 21 22 25 24 22 22 20 16 13 12 12 12 12 11 10 9 8 8 8 8 8 8 9 9 10 10 11 12 14 14 14 14 13 12 11 10 10 10 10 12 13 14 15 16 16 17 17 17 18 19
22 17 17 18 18 18 18 18 17 15 17 19 15 12 11 13 14 14 14 14 15 16 15 13 17 22 22 21 19 15 14 17 17 16 18 20 21 22 24 24 22 21 19 15 13 13 13 14 14 14 13 13 11 10 9 9 9 10 10 10 11 12 12 13 13 13 14 14 14 13 12 11 12 12 13 13 14 14 15 16 16 17 17 18 19 19
18 14 13 14 15 16 16 14 12 13 15 16 13 12 13 13 13 14 14 14 17 19 17 18 20 18 18 20 14 10 15 16 15 16 18 20 21 22 23 23 22 21 19 17 16 15 16 16 16 17 16 15 13 12 11 11 11 12 12 12 13 14 14 14 14 14 14 14 14 14 14 14 15 16 17 18 18 18 18 18 18 19 20 20 21 21
17 14 12 12 14 14 12 10 11 12 13 14 14 15 15 13 13 14 14 17 18 17 17 23 22 14 15 18 9 9 14 12 13 16 17 20 21 21 22 21 21 21 20 20 19 18 18 18 18 18 18 16 14 13 13 13 13 14 14 14 14 15 15 15 15 15 15 15 15 15 16 18 19 20 21 22 22 22 22 22 22 23 24 25 25 26
20 17 15 15 14 12 11 13 14 14 15 17 16 15 14 14 16 16 17 18 14 12 18 23 20 15 10 6 3 8 9 8 8 10 11 14 15 16 18 18 20 22 22 21 21 20 20 20 19 19 18 17 16 16 16 16 16 16 16 15 15 16 16 17 17 16 16 16 16 17 18 20 22 23 24 24 25 25 26 27 27 28 28 29 30 30
20 19 18 17 16 15 15 16 17 17 18 18 16 16 13 11 12 13 15 13 6 8 15 15 13 17 14 5 4 5 7 7 5 6 8 10 10 12 15 17 20 23 25 23 22 21 21 21 20 20 19 18 18 18 18 18 18 17 17 16 16 17 17 18 17 17 18 19 21 23 24 25 25 25 25 26 27 28 29 30 31 32 33 33 34 34
18 19 19 17 17 18 18 18 18 19 20 19 18 17 11 4 4 6 6 4 6 12 15 11 8 14 21 19 15 13 13 13 14 14 14 14 13 13 15 18 22 25 26 25 23 22 21 22 22 21 21 20 20 20 20 20 19 18 18 18 17 18 18 19 19 21 23 26 29 32 33 32 31 30 29 29 29 30 31 32 33 34 35 36 37 37
14 15 18 20 19 19 20 21 19 18 19 19 20 19 13 5 1 3 4 2 7 14 15 13 10 10 17 19 17 19 19 18 19 17 13 12 13 16 18 20 23 26 27 25 23 22 22 23 23 22 22 22 22 21 21 20 19 19 19 19 18 19 20 22 24 27 30 33 36 38 38 37 36 35 35 35 35 35 35 35 35 36 37 38 38 39
11 9 13 16 17 16 17 19 18 17 17 16 17 19 19 15 8 5 4 3 4 6 7 10 8 6 10 9 8 10 10 11 13 12 11 15 21 23 23 23 24 26 26 24 24 24 23 23 23 23 23 23 22 22 21 21 20 20 20 20 22 23 26 28 30 33 35 38 39 39 39 38 38 39 40 40 41 41 40 39 38 38 39 39 40 40
13 13 12 13 14 13 12 14 15 18 18 15 16 19 23 24 20 13 9 10 7 4 5 10 9 10 14 16 15 13 12 13 14 15 17 21 24 23 22 23 24 25 25 25 24 24 23 23 23 23 23 23 24 24 24 23 22 24 25 27 28 30 32 33 35 37 39 41 42 41 41 41 42 43 44 44 45 45 45 45 44 43 41 40 40 40
12 12 12 13 13 14 14 13 14 17 16 14 16 21 23 22 21 17 12 12 8 4 9 13 13 16 18 22 24 21 20 21 18 17 17 17 19 19 20 22 23 24 23 23 23 22 22 22 22 23 23 24 25 24 24 24 26 28 31 33 35 37 39 39 40 41 41 42 42 43 44 46 47 48 48 48 48 49 49 49 49 48 47 45 44 43
16 15 15 14 13 14 16 15 16 18 19 18 18 20 19 16 17 15 8 5 3 3 7 12 16 18 15 16 21 20 19 20 18 18 18 16 15 14 16 18 20 21 21 21 22 22 22 23 23 24 25 25 25 24 25 27 30 33 35 37 39 41 42 42 43 43 42 43 44 45 47 49 51 52 51 51 50 50 51 51 51 51 50 49 48 47
20 19 18 18 17 17 17 18 18 19 22 24 21 18 16 13 13 15 9 3 3 3 3 8 15 20 19 18 19 18 17 18 17 15 14 12 10 9 11 13 14 17 18 20 21 22 22 23 24 25 26 25 26 27 29 31 33 35 38 39 41 42 43 44 44 45 46 47 48 49 50 50 51 51 51 50 50 49 49 49 50 50 50 49 49 49
21 17 14 14 16 16 18 20 21 22 23 25 23 21 21 17 14 16 15 8 4 3 3 5 7 14 20 20 18 15 14 13 11 11 11 11 10 10 10 10 12 14 17 19 20 22 23 24 25 26 27 28 30 31 33 34 36 38 39 41 42 44 45 47 48 49 50 51 51 51 51 50 49 48 47 47 47 47 47 46 46 46 46 46 47 47
23 20 15 12 13 15 17 19 21 23 24 25 26 25 25 24 20 17 18 18 12 4 2 2 4 14 25 24 20 18 15 13 12 12 13 12 11 11 11 11 13 14 16 18 20 22 24 26 28 30 32 34 36 36 37 39 40 42 43 45 46 48 49 50 52 53 53 53 53 52 51 49 48 47 46 45 44 44 44 44 44 44 44 43 43 43
20 19 18 18 18 19 21 22 22 23 24 25 28 28 28 27 23 15 12 20 21 12 8 7 5 17 29 28 21 18 16 15 14 14 15 14 13 12 11 12 14 15 18 20 23 25 28 31 33 35 37 38 39 40 41 43 45 46 48 49 50 51 51 51 51 51 51 51 50 49 48 47 46 45 44 43 43 42 42 42 42 43 43 43 43 43
19 17 20 25 28 28 25 21 21 21 23 26 27 29 28 26 25 19 11 14 18 15 16 14 9 18 30 29 24 22 20 19 18 18 18 16 15 14 15 19 20 21 22 25 27 30 32 34 36 37 39 41 42 43 45 46 48 48 49 49 49 49 48 47 47 46 46 45 45 43 42 42 41 41 41 40 41 41 41 41 41 41 42 42 43 44
22 20 22 27 31 32 28 24 22 21 22 25 27 29 30 27 28 26 20 18 15 14 16 10 6 17 24 23 25 25 23 23 23 23 22 20 21 22 23 25 25 25 28 31 33 34 35 37 39 40 41 42 43 44 45 46 46 46 45 45 45 44 43 43 42 41 40 38 37 37 37 37 37 37 37 37 38 38 39 40 40 41 41 42 42 43
24 21 21 19 16 19 22 20 21 24 26 27 27 29 31 31 30 28 27 22 14 16 21 13 10 20 21 20 26 26 24 26 26 25 26 27 29 30 29 28 29 32 35 36 36 36 37 38 39 40 41 41 42 42 42 41 41 41 41 40 40 38 37 36 35 33 32 31 32 33 33 33 33 33 34 34 35 36 36 38 38 39 41 41 42 43
30 27 25 20 11 11 13 11 12 20 25 28 29 30 30 31 32 30 25 17 11 13 20 20 22 26 25 25 28 27 26 27 27 27 30 33 35 36 36 36 37 37 36 36 36 36 37 37 38 38 39 39 40 40 39 39 38 38 37 36 35 33 32 31 30 30 29 30 31 31 31 31 31 32 33 34 35 36 36 38 39 40 41 42 43 44
31 31 32 31 28 26 25 20 16 16 18 21 24 26 27 26 29 28 20 15 16 16 20 29 33 29 28 30 29 27 27 29 31 34 36 38 40 40 40 39 37 35 35 35 36 36 36 37 37 37 37 37 38 39 39 38 37 36 35 33 32 32 31 30 30 29 29 30 30 30 30 31 32 33 34 35 37 38 39 40 41 43 44 45 46 47
31 32 34 35 35 36 35 30 26 24 22 23 24 28 31 30 29 29 23 21 24 20 22 35 37 30 33 39 36 34 35 37 39 40 40 41 42 40 38 35 33 33 34 36 37 37 37 37 37 37 38 39 40 40 39 37 36 34 33 33 32 32 30 29 29 29 29 30 30 31 32 33 34 35 37 37 38 39 39 41 42 43 44 45 46 46
31 33 34 34 33 33 32 30 29 29 28 29 31 35 38 38 35 34 32 33 34 29 32 41 40 36 40 43 41 41 41 41 42 42 42 42 40 38 35 33 33 34 35 36 37 37 38 38 39 39 40 40 39 38 36 35 34 33 32 32 31 30 29 29 29 30 30 31 32 33 35 36 37 38 39 40 40 40 40 40 41 41 42 43 44 45
29 31 31 31 30 30 29 29 30 31 31 34 38 40 42 42 39 38 39 41 41 39 42 44 42 43 45 44 43 42 41 41 41 39 39 38 36 34 33 33 34 35 37 38 38 37 38 38 39 40 40 39 37 35 34 33 32 32 31 30 30 30 30 31 32 33 34 35 36 37 38 39 40 41 41 41 41 41 41 41 41 41 42 42 43 44
29 28 26 28 29 29 31 33 32 33 34 36 40 43 44 41 38 40 43 41 39 40 42 41 42 45 44 40 39 36 34 36 36 36 36 35 34 34 33 34 35 36 37 38 37 38 38 38 40 40 40 38 35 34 32 31 31 31 31 31 31 32 33 34 35 37 38 39 40 41 42 43 43 43 42 42 42 42 42 42 43 43 44 44 45 45
31 30 28 28 25 26 31 30 29 31 31 33 41 45 42 39 40 42 43 41 41 42 41 38 40 43 38 32 30 30 30 33 34 34 34 33 33 33 32 33 34 35 36 37 37 37 38 40 41 40 38 36 34 32 31 30 30 31 31 32 33 34 36 37 39 40 41 42 43 44 45 44 44 43 43 43 43 43 43 44 45 45 46 47 47 48
30 29 29 26 22 23 25 24 25 24 19 26 42 46 39 39 42 42 42 42 40 39 38 37 38 36 29 26 27 29 30 31 32 32 32 31 31 31 32 34 35 36 36 36 37 38 40 42 41 38 36 33 31 30 29 30 31 32 33 34 35 37 38 39 40 41 42 43 44 44 44 43 43 43 43 43 43 44 44 45 45 46 47 48 48 49
28 28 27 24 21 18 19 21 20 14 13 28 44 43 38 38 39 39 40 40 36 34 35 35 33 30 27 27 28 29 28 28 29 30 31 31 31 32 34 35 35 35 35 35 38 40 41 40 38 35 33 30 28 28 28 30 32 33 35 36 37 38 39 39 40 40 41 42 42 42 43 43 43 43 43 44 44 44 44 45 46 46 47 48 49 50
29 28 25 24 22 18 18 17 10 9 25 41 44 39 37 38 38 38 38 37 35 33 33 32 31 30 28 27 26 26 26 27 28 30 31 31 32 33 34 34 33 33 35 37 40 40 38 36 34 32 29 28 28 29 31 33 34 35 36 37 37 38 38 38 39 39 40 41 42 42 43 43 43 44 44 44 44 44 44 45 46 46 48 49 50 52
31 29 27 26 24 19 16 15 11 17 35 43 40 38 39 38 37 37 36 37 36 34 32 31 30 28 25 24 25 25 25 26 27 29 31 30 30 31 32 32 33 35 37 38 37 36 34 33 31 29 29 30 32 34 35 36 36 36 36 36 36 36 37 37 39 40 41 42 42 43 43 43 43 43 43 43 43 44 44 45 46 48 49 51 53 55
33 30 29 27 25 21 20 22 25 27 33 41 45 42 40 40 39 35 33 35 34 32 31 29 27 26 24 24 24 23 23 25 27 28 28 27 28 30 31 33 34 35 36 35 34 33 32 30 30 31 33 36 37 37 36 36 35 35 34 34 34 35 36 37 39 40 41 42 43 43 43 43 43 43 42 43 43 44 45 46 48 50 52 54 56 58
36 33 32 28 25 25 23 20 17 14 21 38 46 40 36 36 32 26 26 31 35 34 32 29 25 25 24 22 21 21 22 25 28 28 27 27 29 31 32 33 34 33 33 33 33 33 33 33 35 36 37 37 36 35 34 34 34 34 34 34 34 35 36 37 39 40 42 42 42 42 42 42 42 42 42 42 43 45 46 48 50 51 54 56 59 61
39 38 35 30 26 28 26 18 11 13 25 39 41 34 32 30 25 19 18 25 33 31 25 21 20 20 20 20 21 22 24 28 31 29 27 29 31 31 32 32 32 32 32 33 34 34 35 36 37 36 36 34 33 33 33 33 34 35 35 35 35 36 37 38 39 40 41 40 40 40 40 40 40 41 42 43 44 46 48 49 51 53 55 58 61 64
35 35 32 31 32 35 32 24 19 25 34 39 35 30 28 26 21 13 9 16 26 25 20 20 20 20 21 22 24 26 28 31 33 31 29 30 31 31 31 31 31 32 33 34 34 35 35 35 34 33 32 32 32 32 33 34 35 36 37 37 37 38 38 39 40 40 39 39 39 39 39 39 40 41 42 44 46 47 49 50 52 55 57 60 63 64
28 29 29 32 38 39 34 27 25 31 38 38 34 32 29 22 17 16 19 25 28 25 23 25 25 25 25 26 27 30 32 32 32 31 30 30 31 32 33 33 33 34 34 34 34 33 33 32 32 31 31 31 32 33 34 35 36 37 37 38 38 39 40 40 41 40 39 39 38 38 39 39 40 42 43 45 47 48 49 51 54 56 59 62 63 61
25 24 26 32 36 36 34 29 25 29 38 38 33 31 28 24 22 25 29 30 26 24 26 27 28 28 28 28 30 32 31 31 30 30 30 31 33 34 34 34 34 34 34 33 33 32 31 31 31 31 31 32 33 34 34 35 37 37 38 38 39 39 40 41 41 40 39 39 39 39 39 40 41 43 44 46 47 48 50 52 55 58 61 61 59 56
26 22 23 31 33 29 27 23 18 22 31 31 26 27 29 28 27 28 28 26 25 27 27 27 28 30 29 30 31 31 30 30 29 30 32 33 34 35 34 34 35 34 33 33 33 32 31 31 32 32 33 33 33 34 35 35 36 37 38 38 39 40 41 41 41 40 39 38 38 38 39 40 41 43 44 46 47 49 51 54 57 59 59 57 54 54
27 26 27 31 30 25 25 25 23 25 27 22 20 23 24 25 27 28 27 27 26 26 26 28 30 31 30 30 29 29 30 30 30 32 33 34 35 35 34 34 34 34 34 34 33 33 32 33 34 34 34 34 34 34 35 35 36 37 38 38 39 40 41 41 40 39 38 38 38 38 39 40 42 43 44 46 48 50 53 55 57 58 55 52 52 54
28 30 32 33 32 29 29 31 30 28 26 22 22 23 24 26 29 29 28 26 25 25 29 31 31 29 28 28 28 29 31 31 31 33 34 35 35 34 33 34 34 34 35 35 34 35 35 35 36 35 35 35 35 34 35 35 36 37 38 39 40 41 41 41 40 38 37 36 37 38 39 40 42 43 45 46 49 51 54 56 57 55 52 50 51 53
29 30 31 32 32 31 30 31 31 31 31 29 27 28 29 31 31 30 28 28 28 29 30 28 27 26 26 27 28 30 31 31 32 33 34 33 32 32 32 34 34 35 36 36 36 37 37 37 37 37 37 36 35 35 35 36 37 38 39 40 41 41 41 41 39 37 35 35 36 38 39 41 42 43 45 47 49 52 54 55 54 51 49 49 51 52
31 32 32 33 33 31 30 31 32 33 34 33 32 33 34 33 33 32 31 30 28 26 26 25 24 25 26 28 29 30 31 32 33 34 33 32 31 32 33 34 35 36 37 38 38 38 38 39 39 38 38 37 35 35 35 36 38 39 39 40 41 41 41 40 37 35 34 35 36 38 40 41 42 44 45 47 49 52 53 53 50 48 48 49 49 50
33 32 34 36 36 35 34 35 36 35 36 36 35 33 31 30 30 30 28 27 25 24 24 24 25 27 28 30 30 31 32 33 33 33 33 32 32 33 35 36 37 38 39 39 39 39 39 40 40 40 39 37 36 36 36 37 38 39 39 40 41 40 39 37 35 33 33 35 37 39 40 42 43 44 46 48 50 52 52 50 47 47 47 48 47 48
33 34 37 38 38 38 37 37 36 37 37 34 31 29 28 27 27 27 26 26 27 26 26 27 27 29 29 30 31 33 34 34 34 33 33 33 34 34 36 37 38 39 41 41 41 40 40 40 41 41 39 37 36 36 37 38 38 39 39 39 39 38 37 34 33 32 33 35 37 39 41 42 43 45 46 48 50 51 50 47 45 46 47 46 45 47
36 39 42 41 41 41 38 34 32 33 33 28 25 26 26 25 26 27 27 27 28 28 29 29 29 29 30 31 33 34 35 36 35 33 33 34 34 36 37 38 39 41 43 43 42 41 40 40 41 41 39 38 37 37 37 38 38 38 38 38 38 36 34 32 32 32 34 36 38 40 41 42 43 45 47 48 50 51 49 45 43 45 46 45 44 45
40 43 43 43 43 41 36 31 30 30 30 27 25 25 25 25 27 28 28 29 30 30 29 29 30 31 32 33 33 34 35 36 35 34 35 36 36 37 38 38 40 42 43 43 42 41 40 40 41 40 39 37 37 37 37 37 37 38 37 37 36 33 31 31 32 33 35 37 39 40 42 42 44 45 47 48 50 51 49 45 42 41 42 42 43 44
Wind_Direction
260 250 247 252 257 263 274 281 282 279 272 265 262 257 258 261 265 271 275 277 280 282 283 286 287 287 287 291 295 299 297 293 289 280 272 276 290 297 297 296 297 299 303 307 311 315 320 320 313 306 302 293 278 267 261 259 260 263 264 266 267 267 269 271 274 276 276 278 279 280 280 279 276 273 270 268 267 267 267 268 269 270 270 270 270 270
258 253 258 266 272 275 274 269 266 263 260 260 257 255 257 259 266 274 279 283 285 282 283 286 283 280 283 287 288 292 294 289 283 273 263 266 282 292 294 294 297 300 302 306 312 317 322 318 304 294 287 275 264 257 251 248 248 258 267 274 281 286 289 288 287 286 284 283 283 284 285 285 284 282 280 278 275 273 272 271 272 272 272 273 273 273
257 259 271 279 275 266 259 255 256 255 255 254 251 254 258 261 270 278 283 287 286 283 284 282 279 280 285 286 285 290 293 284 273 266 259 263 278 288 289 289 292 295 299 305 314 320 322 311 289 271 262 255 259 262 261 262 264 272 281 287 293 296 297 297 296 293 292 289 286 286 285 285 285 284 284 283 282 280 279 277 276 276 276 276 276 276
257 266 281 280 263 254 251 250 252 253 252 250 248 252 258 265 271 276 281 283 280 280 281 279 280 282 284 286 287 289 291 283 271 266 265 269 279 285 285 285 287 290 296 304 313 320 317 300 272 260 258 258 263 269 276 284 289 294 298 302 304 304 302 300 299 296 294 291 289 288 288 288 287 286 285 285 284 284 284 284 282 282 282 282 283 282
264 271 274 267 262 257 252 248 248 250 252 252 251 253 259 266 269 273 278 277 275 276 277 282 286 283 285 289 286 287 292 291 281 273 273 278 282 285 285 284 285 289 295 304 311 314 308 283 256 256 260 261 264 275 290 297 301 304 307 311 312 311 310 307 304 302 298 294 292 289 288 290 291 290 288 286 286 286 286 287 288 287 287 287 288 289
266 269 263 258 257 256 252 250 246 247 253 255 254 255 260 267 268 271 274 274 278 277 274 284 292 287 286 280 282 296 299 295 284 276 277 279 279 281 284 284 286 291 296 301 304 302 293 268 248 251 254 256 269 284 296 298 299 304 307 309 310 309 309 308 305 303 301 299 297 294 293 295 297 299 295 292 291 291 291 292 293 295 295 296 297 297
264 264 256 250 248 248 248 247 243 243 253 257 257 258 260 264 267 269 268 267 272 273 270 274 279 283 279 271 286 299 296 287 280 278 278 275 274 276 278 280 284 289 292 293 292 287 276 255 246 250 250 256 270 278 284 286 286 293 297 299 299 297 297 299 298 297 296 296 295 295 296 299 303 304 302 298 297 298 299 300 301 301 303 305 307 308
266 263 251 247 243 240 239 241 242 242 251 255 257 261 260 264 268 267 267 264 265 267 264 261 269 276 274 276 289 291 274 273 271 270 270 269 272 273 273 277 282 283 284 282 278 271 260 249 249 252 252 258 267 269 269 271 277 284 288 289 290 290 287 287 287 285 285 286 286 287 289 294 299 303 305 305 304 304 303 304 305 305 305 306 307 309
266 259 244 240 236 236 236 239 240 239 246 252 256 263 266 269 267 264 265 264 269 273 266 260 264 269 273 280 289 267 251 253 252 255 262 266 269 271 273 278 281 279 276 272 268 262 253 248 249 251 252 257 261 261 259 262 271 276 278 280 282 282 281 280 278 276 276 276 279 283 288 294 297 300 303 304 304 304 302 302 303 305 306 306 305 306
251 247 236 230 230 234 233 230 230 231 240 247 254 262 268 271 267 264 265 264 271 274 264 264 262 255 276 288 277 240 240 239 247 255 260 265 266 268 273 277 277 274 269 265 261 256 251 248 246 246 250 255 256 255 255 260 267 268 269 271 272 274 274 273 272 271 272 274 278 285 290 294 296 297 297 296 297 298 298 297 298 300 302 304 305 306
237 239 236 230 229 228 221 217 221 227 236 242 248 254 259 263 262 263 267 270 278 272 261 268 264 248 269 308 186 209 221 218 249 259 259 267 270 273 276 275 275 272 264 259 254 249 247 245 243 243 248 251 252 252 253 257 261 262 264 265 266 268 269 270 271 273 277 281 285 289 293 295 295 294 294 294 295 296 296 297 297 298 299 300 302 303
231 232 233 231 227 224 221 221 226 232 236 239 244 248 249 256 264 264 265 264 258 262 267 271 258 236 233 221 181 215 213 206 256 285 274 281 285 282 280 276 275 272 263 255 248 244 243 242 241 242 246 247 247 251 254 257 258 258 259 261 262 266 268 269 271 275 282 289 294 296 298 299 299 297 295 295 296 297 297 297 297 297 298 299 300 301
233 231 231 230 228 226 226 228 230 233 234 236 237 237 233 249 291 263 252 242 230 254 265 256 228 226 237 247 256 259 253 251 270 282 279 284 290 287 283 278 276 270 259 251 244 240 239 238 240 243 245 246 247 251 254 255 256 257 259 261 263 266 269 270 274 281 291 298 302 303 302 302 303 302 302 302 303 303 303 302 301 300 299 300 301 302
241 236 229 228 229 226 224 229 232 235 236 234 235 231 217 182 84 249 243 269 258 261 258 239 225 238 250 259 262 259 261 262 266 269 269 275 288 295 289 279 273 265 254 247 242 238 237 238 241 244 246 247 249 252 254 256 258 261 265 268 273 279 284 287 290 296 302 305 305 304 303 303 304 306 308 310 312 312 311 309 306 304 303 302 301 302
238 243 229 226 230 227 226 233 240 245 246 244 243 239 227 215 206 219 223 203 239 268 246 211 204 234 246 248 250 248 249 247 249 254 261 276 288 293 285 273 267 259 250 246 242 238 238 240 243 246 248 252 255 256 258 261 266 273 280 286 292 298 301 302 303 304 307 306 305 303 303 303 305 307 310 312 314 315 315 314 312 309 307 304 303 302
235 249 246 237 241 241 237 238 237 239 244 245 239 233 234 235 233 236 248 246 251 291 254 217 215 241 253 259 259 255 257 259 264 269 271 280 287 286 278 269 261 254 248 245 242 240 241 244 248 252 256 258 260 262 267 277 289 298 304 306 307 309 310 310 310 309 307 304 303 303 303 305 306 307 309 311 312 313 313 312 312 311 309 306 304 303
238 248 250 245 248 249 243 237 230 230 235 236 231 232 238 239 235 236 253 260 254 268 261 248 245 252 261 270 268 267 273 278 284 284 278 279 280 278 275 268 259 253 248 246 245 247 250 254 258 259 260 261 266 274 285 297 307 310 309 308 308 310 311 310 308 305 302 300 299 301 303 305 306 308 309 310 310 309 308 308 307 307 307 306 304 303
248 252 255 250 244 241 236 233 232 234 236 236 237 241 241 233 228 227 238 264 238 234 259 253 257 261 260 266 272 276 286 292 293 286 279 275 273 270 267 263 258 256 253 252 254 257 260 262 261 261 263 270 279 289 298 302 304 305 304 303 303 303 303 302 300 298 297 297 298 299 301 302 303 305 306 306 305 305 304 303 302 302 302 302 301 300
248 254 258 247 234 233 234 232 231 233 237 237 238 239 232 223 221 216 214 237 229 224 265 249 255 264 261 263 277 287 294 297 292 280 272 268 261 254 254 258 261 261 260 260 261 261 261 260 261 266 273 281 288 293 295 296 297 297 298 297 296 295 295 295 295 296 296 298 299 300 300 300 300 300 301 301 301 300 299 298 297 297 296 295 295 295
240 246 254 241 229 230 230 230 231 232 232 231 231 229 228 230 227 217 217 223 214 214 261 250 247 264 268 273 284 292 293 288 274 263 262 259 254 252 258 265 268 268 268 266 263 261 260 263 269 277 284 288 290 292 293 294 294 294 294 293 293 293 293 293 294 294 296 297 299 299 299 299 299 298 298 297 297 297 296 295 293 292 291 290 289 288
233 236 242 239 230 227 228 235 241 239 233 229 228 226 227 232 233 233 237 239 235 217 220 244 254 262 269 277 281 282 280 264 246 248 254 254 258 265 272 277 277 276 274 269 266 267 270 276 282 287 289 290 291 292 293 293 293 293 294 293 293 293 292 293 293 294 295 296 297 298 298 298 298 298 297 296 295 294 293 292 291 290 290 289 288 287
227 232 241 245 245 244 247 250 249 242 234 231 231 231 231 233 233 238 246 242 239 232 226 238 262 265 268 275 278 273 265 251 243 249 255 260 268 273 278 285 287 285 281 277 276 279 282 285 287 288 288 289 289 290 291 292 292 292 293 293 293 293 293 293 293 294 295 296 297 297 297 297 297 297 296 295 294 294 293 292 290 289 289 288 289 289
233 242 250 256 260 262 258 249 241 233 228 227 229 231 232 232 232 232 236 240 237 235 241 246 255 263 264 268 270 266 260 259 262 264 264 264 263 268 283 294 296 290 284 282 282 283 284 285 285 286 286 287 288 289 291 292 293 294 294 294 294 295 295 296 297 298 298 298 298 297 297 296 296 295 294 294 293 293 293 293 292 291 290 289 288 289
245 250 253 257 263 262 253 242 232 223 219 222 225 229 231 233 237 238 243 246 239 234 240 242 247 258 259 260 261 261 262 267 271 272 270 268 271 282 293 297 295 289 285 285 285 284 285 285 286 287 288 289 290 292 293 293 294 295 295 296 296 297 299 300 301 301 301 299 298 298 298 298 297 296 295 294 293 293 293 293 293 293 292 291 290 289
254 250 244 246 260 260 251 244 234 225 225 227 228 229 233 238 242 245 248 248 242 242 243 240 253 258 257 257 256 257 262 266 267 269 270 273 281 292 297 295 292 290 289 289 289 289 289 288 288 289 290 291 292 293 294 294 295 297 297 298 299 299 300 300 300 299 298 297 297 298 299 298 297 296 295 294 294 293 293 293 293 293 293 292 291 291
257 251 241 232 233 244 244 241 234 234 236 237 238 239 242 246 249 249 247 235 225 238 237 237 250 256 256 259 259 257 258 260 262 266 270 274 282 289 292 292 291 291 290 290 290 290 290 289 289 290 290 291 292 293 295 296 298 299 300 299 298 297 296 296 296 295 294 295 296 297 296 295 295 295 295 295 296 296 296 295 295 295 295 294 293 293
249 246 242 239 238 243 250 255 254 248 237 234 241 247 250 253 251 245 237 226 234 240 236 241 249 252 254 259 259 257 259 263 268 273 276 279 283 287 288 289 288 287 287 287 287 287 288 289 290 291 292 293 294 296 298 299 300 299 298 297 295 294 294 293 292 292 293 295 296 295 295 295 295 296 297 298 299 299 299 298 298 298 297 296 296 295
244 245 247 247 247 250 254 256 256 255 249 245 250 255 258 258 251 245 243 245 247 245 245 253 256 253 256 261 263 266 269 272 275 278 280 283 285 286 287 286 284 283 283 284 285 287 288 290 291 292 294 295 296 297 298 298 297 296 294 293 292 292 291 290 290 291 293 295 294 294 295 296 297 297 298 299 299 299 298 297 297 296 295 295 294 293
246 248 250 251 251 251 252 252 254 257 259 260 260 262 262 260 255 253 255 255 255 253 256 262 264 262 264 267 268 271 275 278 280 281 281 281 283 284 285 285 283 281 281 282 284 286 287 289 291 292 294 295 295 296 295 294 293 291 290 290 290 290 289 288 288 290 292 292 291 292 293 295 296 297 298 299 298 297 296 294 293 292 291 291 291 291
243 246 249 249 249 251 252 254 258 260 262 263 263 264 265 263 261 261 262 261 260 259 262 266 268 267 268 271 273 276 278 280 280 279 278 279 282 283 284 283 282 280 281 282 284 285 287 289 290 292 293 293 294 293 292 292 290 288 288 288 288 288 288 288 289 290 291 291 291 292 294 295 297 298 299 298 297 296 295 294 293 292 292 292 291 292
240 243 246 249 251 254 255 257 260 261 261 261 262 262 261 261 263 263 264 265 263 263 267 269 268 269 273 277 280 280 277 276 276 277 279 280 281 282 282 281 280 280 280 281 283 285 286 288 289 290 291 291 292 291 290 289 288 287 288 289 289 290 291 292 293 294 295 295 296 296 297 298 299 300 299 298 297 297 297 296 296 296 296 296 296 296
243 244 247 250 251 253 256 257 257 257 258 259 259 259 257 259 263 265 267 269 269 270 272 268 266 272 279 280 278 275 272 274 277 278 280 280 279 280 280 278 278 278 279 280 281 282 285 287 289 289 289 290 290 289 288 287 288 289 291 292 293 294 295 296 297 298 299 299 299 300 300 301 301 301 300 300 300 300 299 299 299 299 299 300 299 299
245 246 246 245 244 248 252 252 252 255 260 258 257 260 263 265 268 270 271 272 273 273 272 269 271 278 282 276 273 274 277 279 280 279 279 279 278 278 277 275 275 277 278 279 280 282 285 287 287 287 288 289 288 286 286 287 289 290 292 294 295 297 298 299 300 300 301 301 301 302 302 302 302 302 302 302 302 302 301 301 301 301 301 300 300 300
247 247 245 240 238 240 242 246 251 252 253 258 261 266 270 270 271 273 273 274 276 274 272 273 276 279 279 277 278 280 281 280 278 277 276 275 276 275 275 276 277 278 278 278 281 284 286 285 286 287 289 288 287 287 287 288 290 292 293 295 298 299 301 301 302 302 302 303 303 303 303 303 304 304 304 303 303 303 302 301 301 300 300 301 300 300
248 246 241 234 232 234 239 243 245 240 251 262 270 274 274 274 274 273 273 274 276 276 275 276 278 279 280 282 281 280 278 275 273 272 272 272 273 274 274 275 275 276 277 280 282 284 283 284 285 287 287 287 287 288 290 291 292 294 295 297 299 300 301 302 303 303 303 303 303 303 303 303 303 303 303 302 302 301 301 300 300 301 301 301 301 302
249 246 241 234 230 232 229 220 225 254 262 268 274 274 274 276 275 273 275 277 279 280 280 279 280 283 284 281 279 277 274 271 269 268 268 269 269 269 269 271 273 276 278 280 281 281 282 282 283 283 285 288 290 291 293 294 294 294 296 297 299 300 301 301 301 301 301 301 301 301 302 302 302 301 300 300 300 300 300 300 301 302 302 302 304 305
250 244 241 235 228 227 225 226 242 261 269 271 272 271 273 275 275 276 278 279 282 283 280 280 284 285 284 280 276 271 267 265 264 263 264 265 266 268 270 273 275 277 278 279 280 281 280 279 279 282 286 289 292 293 294 295 295 296 298 300 300 301 300 300 300 300 301 301 301 301 301 300 299 299 299 299 299 300 301 302 303 304 304 305 307 307
246 242 241 238 234 234 234 239 250 257 263 268 270 272 274 275 275 277 276 278 282 283 282 285 288 285 281 276 271 266 262 259 259 263 267 270 271 273 276 277 277 277 279 280 281 280 280 280 282 286 289 291 293 294 296 297 298 299 301 302 302 301 300 300 300 300 301 301 302 302 300 298 298 298 298 300 301 302 303 304 305 306 307 308 309 309
241 242 243 242 242 239 234 233 236 237 254 266 271 275 276 275 276 277 274 277 282 284 286 288 287 282 278 273 269 266 263 263 268 274 277 277 277 277 277 278 279 280 282 283 283 283 284 286 288 290 292 294 295 297 298 300 301 302 303 303 303 302 301 301 300 301 301 303 303 301 299 298 298 299 300 301 303 304 305 306 307 308 310 310 311 311
235 236 234 232 236 238 234 234 239 244 254 265 269 270 272 275 278 274 257 271 283 291 296 292 286 282 278 274 272 271 270 273 279 283 281 279 280 281 280 281 284 285 286 287 288 290 291 292 293 294 295 296 298 300 301 302 302 304 304 305 304 303 303 302 302 302 303 304 303 300 299 298 299 300 302 304 305 306 307 309 310 310 311 311 311 310
228 227 225 229 236 237 233 234 242 248 256 262 264 265 269 269 259 248 257 275 287 292 292 288 285 282 279 277 277 277 278 281 283 283 282 282 283 284 285 287 288 289 290 291 293 294 294 295 295 295 296 298 300 302 303 303 304 305 305 304 304 304 303 303 302 303 304 304 302 300 299 299 300 302 304 306 307 308 310 312 312 312 312 312 311 309
226 220 220 228 234 236 236 239 244 252 261 265 261 258 258 251 244 257 274 285 288 284 283 283 282 281 281 281 281 281 282 283 283 283 284 284 284 285 288 290 290 291 293 294 294 295 295 295 295 296 298 300 302 303 304 304 304 304 304 304 303 303 302 302 302 302 302 302 300 299 299 300 302 304 306 308 309 311 313 314 314 313 313 312 310 308
238 230 226 230 233 232 232 232 235 257 273 275 261 249 247 250 260 276 286 286 283 282 283 282 280 282 284 283 283 282 282 282 282 283 284 284 284 287 289 291 291 293 294 295 295 296 296 296 297 298 299 301 303 303 303 303 303 303 303 303 303 302 302 302 301 301 300 300 299 299 300 301 304 306 308 310 312 313 314 315 315 315 314 312 309 308
239 238 240 243 239 226 221 229 247 271 283 280 260 252 256 265 278 288 289 285 283 283 282 281 282 284 283 281 280 279 278 278 279 281 282 283 285 288 289 290 292 294 295 296 296 296 296 297 298 298 300 301 302 302 302 302 302 302 302 302 302 301 302 302 301 300 299 298 298 298 300 303 306 308 310 312 314 315 316 316 316 315 313 311 310 310
243 250 255 256 251 244 244 254 267 276 276 268 264 270 275 280 286 289 287 284 280 278 279 281 281 280 278 276 276 275 275 276 277 278 279 281 283 286 287 289 292 294 295 296 297 297 298 298 298 298 299 301 301 301 301 301 301 301 301 300 300 300 301 301 300 298 297 297 297 299 301 304 307 309 311 313 315 316 317 318 317 315 312 311 312 313
252 257 260 259 258 257 257 260 265 269 269 269 273 279 281 285 287 285 280 277 277 279 280 278 274 273 273 273 273 273 273 274 275 276 277 279 282 284 286 289 291 293 294 295 297 298 298 298 297 297 298 299 300 299 299 299 299 299 299 299 299 299 300 299 297 296 295 296 297 300 302 305 308 310 312 315 317 318 319 319 316 314 312 313 314 315
256 256 255 255 256 256 256 259 265 269 272 274 278 281 285 288 287 282 278 277 279 279 277 272 269 269 271 273 273 273 273 274 275 276 277 280 283 286 289 291 292 293 294 295 296 297 297 296 295 295 296 298 298 297 297 297 298 298 298 298 298 298 298 296 295 294 294 296 298 301 304 307 309 311 313 316 318 319 320 318 315 313 313 315 316 318
259 259 257 256 255 254 256 265 271 272 272 276 281 284 286 286 285 284 281 279 278 275 272 269 268 269 272 274 275 276 277 276 276 277 278 281 284 288 290 291 292 292 293 293 295 295 294 294 293 294 295 297 297 297 297 297 297 297 297 297 297 297 295 293 292 293 294 296 299 302 305 308 310 312 314 317 319 320 320 317 314 313 315 317 318 319
259 260 260 260 260 259 261 269 275 273 274 279 284 284 283 284 285 284 281 279 277 274 271 269 269 271 273 274 274 277 279 278 278 279 280 281 284 287 289 290 290 289 290 291 293 293 292 291 292 293 295 296 296 296 296 296 296 296 297 297 296 295 293 291 291 292 295 297 300 303 306 309 311 313 316 318 320 321 319 316 314 314 316 318 320 320
257 260 261 261 261 265 271 280 283 280 279 282 281 279 281 283 283 281 279 277 274 272 270 270 270 271 272 272 274 277 278 278 280 281 281 282 284 286 287 287 286 286 287 289 290 290 289 290 290 292 293 294 294 294 294 294 295 295 296 296 294 292 290 289 290 292 295 298 301 304 307 310 312 315 317 319 321 321 318 315 314 316 318 319 321 322
261 265 267 265 266 272 280 287 288 284 283 283 280 279 281 282 280 277 273 270 268 268 269 270 270 270 271 272 275 277 278 279 280 280 279 280 281 282 282 282 282 283 285 287 288 288 288 289 289 291 292 292 292 292 293 293 294 294 295 294 291 288 287 287 289 292 295 299 302 305 308 311 313 315 318 320 321 320 317 314 314 317 318 320 321 322
Height
3151 3151 3151 3151 3152 3153 3153 3152 3152 3152 3152 3151 3151 3150 3150 3149 3147 3148 3149 3149 3148 3146 3144 3144 3143 3143 3143 3143 3144 3144 3142 3141 3140 3139 3138 3138 3138 3137 3137 3136 3135 3135 3134 3133 3132 3131 3131 3130 3128 3127 3127 3126 3125 3125 3125 3125 3125 3125 3126 3125 3125 3124 3123 3123 3123 3123 3123 3123 3124 3124 3124 3124 3123 3123 3123 3122 3122 3121 3121 3121 3121 3121 3120 3120 3120 3120
3148 3148 3148 3150 3151 3152 3151 3150 3149 3149 3148 3148 3148 3147 3147 3146 3145 3146 3146 3146 3146 3143 3141 3141 3141 3140 3141 3141 3142 3141 3140 3139 3138 3138 3137 3137 3136 3135 3134 3134 3133 3132 3132 3131 3131 3130 3129 3128 3127 3126 3126 3125 3125 3124 3124 3124 3124 3124 3124 3124 3124 3124 3123 3123 3122 3121 3121 3121 3121 3121 3121 3122 3122 3121 3121 3120 3120 3119 3119 3119 3118 3118 3118 3117 3117 3117
3144 3144 3146 3148 3149 3148 3148 3147 3146 3145 3145 3145 3145 3145 3144 3144 3143 3144 3144 3144 3143 3141 3139 3139 3137 3137 3138 3138 3138 3138 3138 3138 3136 3136 3136 3135 3134 3133 3132 3131 3131 3130 3130 3129 3129 3128 3127 3126 3126 3125 3125 3125 3124 3124 3124 3124 3123 3123 3123 3123 3123 3123 3122 3122 3122 3121 3120 3120 3119 3119 3119 3119 3119 3119 3119 3119 3118 3118 3117 3116 3116 3116 3115 3115 3114 3114
3140 3142 3145 3145 3145 3145 3145 3145 3144 3143 3142 3142 3143 3142 3141 3142 3142 3142 3142 3142 3141 3139 3138 3137 3135 3134 3134 3135 3135 3135 3136 3136 3135 3134 3133 3132 3131 3130 3130 3129 3129 3129 3128 3128 3127 3126 3126 3125 3125 3125 3125 3124 3124 3124 3123 3123 3123 3122 3122 3122 3121 3121 3121 3121 3121 3120 3120 3119 3118 3118 3117 3117 3117 3117 3117 3117 3116 3116 3115 3115 3114 3113 3113 3112 3112 3111
3137 3140 3143 3142 3141 3142 3142 3143 3142 3140 3140 3141 3141 3140 3139 3140 3141 3140 3140 3140 3139 3138 3136 3135 3132 3129 3130 3132 3132 3132 3133 3133 3133 3131 3130 3129 3128 3127 3127 3127 3127 3127 3127 3127 3126 3126 3125 3125 3125 3124 3124 3124 3123 3123 3123 3122 3122 3122 3121 3121 3120 3120 3120 3120 3120 3119 3119 3118 3118 3117 3116 3116 3116 3116 3115 3115 3114 3114 3114 3113 3113 3112 3112 3111 3110 3109
3134 3138 3139 3138 3138 3139 3139 3140 3139 3139 3139 3139 3138 3138 3138 3139 3139 3139 3139 3138 3137 3136 3135 3135 3132 3125 3125 3129 3129 3129 3129 3130 3129 3127 3127 3126 3125 3125 3125 3125 3125 3126 3126 3125 3125 3125 3125 3124 3124 3124 3123 3122 3122 3122 3121 3121 3121 3121 3120 3120 3120 3119 3119 3119 3118 3118 3118 3117 3117 3116 3115 3115 3115 3115 3114 3114 3113 3112 3112 3111 3111 3111 3110 3109 3109 3108
3130 3134 3134 3134 3135 3136 3136 3136 3136 3137 3137 3137 3136 3136 3137 3137 3137 3137 3137 3137 3135 3134 3133 3135 3134 3124 3120 3125 3127 3127 3126 3125 3125 3124 3123 3123 3123 3123 3123 3122 3123 3124 3124 3124 3124 3124 3124 3124 3123 3123 3122 3121 3121 3120 3120 3120 3120 3120 3119 3118 3118 3118 3118 3117 3117 3116 3116 3116 3115 3115 3114 3114 3114 3114 3113 3113 3112 3111 3110 3109 3109 3108 3108 3108 3107 3107
3126 3130 3130 3131 3132 3133 3133 3132 3134 3135 3135 3134 3134 3135 3136 3135 3136 3135 3135 3135 3133 3133 3132 3133 3135 3126 3117 3120 3125 3125 3123 3122 3121 3121 3120 3121 3121 3121 3121 3121 3121 3122 3122 3122 3122 3123 3122 3122 3122 3121 3121 3120 3119 3119 3118 3118 3118 3118 3117 3117 3117 3116 3116 3116 3115 3115 3114 3114 3113 3113 3112 3112 3112 3112 3112 3111 3110 3109 3108 3107 3106 3106 3106 3106 3106 3105
3124 3126 3127 3128 3129 3129 3129 3130 3132 3133 3133 3132 3133 3134 3134 3134 3134 3133 3133 3133 3132 3131 3129 3130 3133 3127 3115 3115 3121 3121 3120 3119 3118 3118 3119 3119 3119 3119 3119 3119 3120 3120 3120 3121 3121 3121 3120 3120 3120 3119 3119 3118 3118 3117 3117 3116 3116 3116 3116 3115 3115 3115 3114 3114 3114 3113 3113 3112 3111 3111 3110 3110 3110 3110 3110 3109 3108 3107 3106 3105 3104 3104 3103 3103 3103 3103
3122 3123 3124 3125 3125 3126 3127 3128 3129 3130 3131 3131 3132 3132 3132 3132 3132 3132 3132 3132 3132 3128 3124 3126 3130 3126 3114 3112 3117 3117 3116 3117 3117 3117 3117 3117 3117 3117 3117 3117 3117 3118 3118 3118 3118 3118 3118 3118 3117 3117 3116 3116 3116 3115 3115 3114 3114 3114 3114 3113 3113 3113 3112 3112 3112 3111 3111 3110 3110 3109 3109 3108 3108 3108 3108 3107 3107 3106 3104 3103 3102 3102 3101 3100 3100 3100
3120 3121 3122 3122 3123 3124 3125 3126 3126 3128 3128 3129 3130 3130 3131 3131 3130 3131 3130 3130 3131 3123 3118 3122 3125 3125 3118 3111 3113 3115 3115 3116 3116 3116 3116 3116 3116 3116 3116 3116 3116 3116 3116 3116 3116 3115 3115 3115 3115 3114 3114 3114 3114 3113 3113 3112 3112 3112 3111 3111 3110 3110 3110 3110 3110 3109 3109 3109 3108 3108 3107 3107 3107 3107 3106 3106 3105 3104 3102 3101 3100 3099 3098 3098 3097 3096
3118 3119 3120 3120 3121 3122 3123 3124 3124 3125 3125 3126 3127 3128 3130 3129 3129 3129 3128 3130 3129 3119 3115 3119 3121 3122 3118 3112 3112 3113 3114 3115 3115 3115 3116 3116 3116 3116 3115 3115 3115 3114 3114 3114 3113 3113 3113 3112 3112 3112 3112 3112 3111 3111 3111 3110 3110 3109 3109 3108 3108 3108 3107 3107 3107 3107 3107 3107 3106 3105 3105 3105 3104 3104 3104 3103 3102 3101 3099 3098 3097 3096 3095 3094 3094 3093
3116 3117 3118 3119 3119 3120 3121 3122 3122 3123 3123 3124 3125 3126 3128 3128 3129 3128 3126 3127 3124 3116 3115 3118 3118 3117 3113 3110 3111 3112 3112 3113 3114 3114 3115 3115 3115 3115 3114 3114 3113 3113 3112 3111 3111 3110 3110 3110 3109 3109 3109 3109 3109 3108 3108 3108 3108 3107 3107 3106 3105 3105 3105 3105 3104 3104 3104 3103 3102 3101 3100 3100 3100 3100 3099 3099 3098 3096 3095 3094 3093 3092 3091 3091 3090 3089
3114 3114 3115 3116 3117 3118 3118 3119 3120 3120 3121 3122 3122 3123 3124 3127 3129 3127 3124 3124 3119 3114 3113 3115 3116 3113 3108 3107 3109 3109 3110 3111 3111 3112 3113 3113 3113 3113 3113 3112 3111 3111 3110 3109 3109 3108 3108 3107 3107 3107 3107 3107 3106 3106 3106 3105 3105 3105 3104 3103 3102 3101 3101 3100 3100 3099 3098 3098 3097 3096 3095 3095 3094 3094 3093 3092 3091 3090 3090 3090 3089 3088 3087 3087 3086 3085
3112 3112 3112 3113 3114 3115 3116 3117 3118 3119 3119 3119 3120 3120 3120 3120 3123 3121 3118 3117 3114 3111 3112 3113 3112 3108 3104 3105 3106 3106 3108 3108 3109 3110 3110 3111 3111 3110 3110 3109 3109 3108 3108 3107 3106 3106 3105 3105 3105 3105 3105 3104 3104 3104 3104 3103 3103 3102 3101 3099 3097 3096 3096 3095 3094 3093 3093 3092 3091 3091 3090 3090 3090 3089 3088 3086 3085 3084 3084 3083 3083 3082 3082 3082 3081 3080
3110 3109 3110 3111 3111 3113 3114 3115 3116 3117 3117 3117 3117 3118 3116 3115 3116 3116 3114 3112 3112 3111 3110 3108 3106 3103 3101 3102 3103 3104 3105 3106 3107 3108 3108 3108 3107 3107 3107 3106 3106 3106 3105 3105 3104 3103 3103 3103 3103 3103 3103 3103 3102 3102 3102 3100 3099 3097 3095 3093 3091 3091 3091 3090 3089 3089 3088 3087 3086 3085 3085 3085 3085 3084 3083 3082 3081 3080 3079 3078 3077 3076 3076 3075 3075 3074
3107 3107 3107 3108 3109 3110 3111 3112 3113 3114 3114 3114 3114 3113 3113 3113 3114 3114 3112 3110 3111 3111 3106 3102 3101 3100 3100 3099 3099 3101 3102 3103 3105 3105 3105 3105 3104 3104 3104 3104 3104 3103 3103 3103 3102 3102 3101 3101 3101 3101 3101 3100 3100 3099 3097 3095 3093 3092 3090 3088 3087 3087 3087 3086 3086 3085 3084 3084 3083 3082 3081 3081 3080 3079 3078 3077 3076 3075 3074 3073 3072 3071 3070 3069 3068 3068
3104 3104 3104 3105 3106 3107 3108 3109 3109 3110 3111 3111 3110 3110 3112 3113 3112 3112 3111 3110 3110 3109 3103 3099 3098 3098 3098 3096 3095 3098 3099 3100 3101 3101 3102 3102 3102 3102 3102 3102 3102 3101 3101 3101 3100 3100 3099 3099 3099 3098 3098 3097 3095 3094 3092 3091 3090 3089 3088 3087 3086 3086 3085 3085 3084 3083 3082 3081 3080 3079 3078 3077 3077 3075 3074 3073 3072 3072 3070 3069 3068 3067 3065 3064 3062 3061
3101 3101 3101 3101 3103 3104 3104 3105 3106 3106 3107 3107 3107 3109 3109 3109 3108 3109 3109 3107 3107 3106 3101 3097 3096 3094 3094 3093 3093 3095 3096 3097 3098 3098 3099 3099 3099 3099 3099 3099 3099 3099 3098 3098 3097 3097 3097 3096 3096 3095 3094 3093 3091 3090 3089 3089 3088 3088 3087 3086 3085 3085 3084 3083 3081 3080 3079 3077 3077 3076 3075 3074 3073 3072 3071 3070 3069 3068 3066 3065 3064 3063 3061 3060 3058 3056
3099 3099 3097 3097 3099 3100 3100 3100 3101 3102 3103 3104 3105 3106 3105 3105 3104 3104 3103 3101 3101 3101 3099 3097 3094 3091 3090 3091 3092 3093 3095 3096 3096 3097 3097 3097 3097 3097 3097 3097 3097 3096 3096 3095 3095 3094 3094 3094 3093 3092 3090 3089 3088 3087 3087 3086 3085 3085 3084 3083 3082 3081 3080 3079 3077 3076 3075 3074 3073 3072 3071 3070 3069 3068 3067 3065 3064 3063 3061 3060 3059 3058 3057 3055 3054 3052
3096 3096 3095 3095 3095 3096 3096 3096 3097 3099 3100 3100 3101 3101 3101 3101 3101 3100 3098 3097 3097 3098 3097 3095 3092 3088 3088 3089 3090 3091 3093 3094 3095 3095 3095 3094 3094 3094 3095 3094 3094 3094 3093 3092 3092 3092 3091 3090 3089 3088 3087 3086 3085 3083 3083 3082 3081 3081 3080 3079 3078 3077 3076 3074 3073 3072 3070 3069 3068 3067 3066 3064 3063 3062 3061 3060 3059 3058 3056 3055 3053 3052 3051 3049 3048 3046
3093 3093 3092 3092 3091 3091 3092 3093 3094 3095 3096 3096 3097 3097 3097 3097 3097 3097 3095 3093 3093 3093 3092 3091 3088 3085 3086 3087 3087 3089 3090 3091 3092 3092 3092 3092 3092 3092 3092 3092 3092 3091 3091 3090 3089 3088 3087 3086 3085 3084 3083 3082 3081 3080 3079 3078 3078 3077 3076 3075 3073 3072 3071 3070 3069 3067 3066 3064 3063 3062 3061 3060 3058 3057 3055 3054 3053 3052 3050 3049 3048 3046 3045 3043 3041 3040
3090 3091 3090 3089 3088 3089 3090 3090 3091 3092 3092 3093 3093 3093 3093 3093 3093 3093 3090 3088 3089 3088 3087 3088 3085 3082 3084 3086 3086 3087 3087 3088 3089 3089 3089 3089 3089 3089 3089 3089 3089 3088 3088 3087 3086 3085 3084 3082 3081 3080 3079 3078 3077 3076 3075 3074 3073 3072 3071 3070 3069 3067 3066 3065 3064 3062 3061 3059 3058 3057 3056 3054 3053 3052 3050 3049 3047 3046 3045 3043 3042 3041 3040 3038 3037 3035
3087 3087 3087 3086 3085 3086 3087 3087 3087 3088 3089 3089 3088 3089 3089 3089 3088 3088 3086 3085 3085 3084 3085 3086 3082 3078 3081 3083 3084 3084 3084 3085 3086 3086 3086 3086 3086 3086 3085 3085 3085 3084 3083 3083 3082 3081 3079 3078 3077 3076 3075 3074 3073 3072 3071 3069 3069 3067 3066 3065 3063 3062 3060 3059 3057 3056 3055 3053 3052 3051 3050 3049 3048 3046 3045 3044 3043 3041 3040 3038 3037 3035 3034 3033 3032 3030
3084 3084 3085 3085 3084 3084 3083 3083 3083 3084 3085 3084 3084 3085 3085 3085 3085 3083 3082 3082 3081 3080 3082 3083 3077 3075 3079 3080 3080 3080 3081 3083 3083 3082 3083 3083 3082 3081 3081 3081 3080 3079 3078 3077 3076 3075 3074 3073 3072 3071 3070 3070 3068 3067 3066 3065 3063 3062 3060 3059 3057 3056 3055 3053 3052 3051 3049 3048 3047 3046 3045 3044 3043 3042 3040 3039 3038 3037 3035 3034 3032 3031 3029 3027 3026 3025
3080 3080 3080 3081 3081 3079 3077 3077 3077 3079 3081 3081 3081 3082 3082 3082 3081 3079 3079 3079 3078 3077 3078 3077 3072 3072 3077 3077 3076 3077 3079 3079 3080 3079 3079 3079 3078 3078 3077 3076 3075 3074 3073 3072 3071 3070 3069 3068 3067 3066 3066 3064 3063 3062 3060 3059 3057 3056 3054 3053 3051 3050 3049 3048 3047 3046 3045 3044 3043 3042 3041 3039 3038 3037 3035 3034 3033 3031 3030 3028 3027 3025 3024 3022 3020 3019
3075 3075 3075 3075 3074 3073 3072 3073 3075 3076 3077 3078 3078 3079 3079 3079 3077 3076 3075 3075 3075 3075 3073 3070 3068 3070 3073 3073 3073 3074 3075 3075 3076 3075 3075 3075 3074 3074 3073 3072 3070 3069 3068 3067 3066 3065 3064 3063 3062 3061 3060 3058 3057 3055 3054 3053 3051 3050 3048 3047 3046 3045 3045 3044 3043 3042 3041 3040 3039 3037 3036 3035 3033 3032 3030 3029 3027 3026 3024 3022 3021 3019 3017 3016 3014 3012
3070 3069 3070 3070 3070 3070 3071 3071 3072 3072 3073 3074 3075 3075 3076 3075 3074 3072 3071 3072 3073 3071 3066 3065 3067 3067 3067 3070 3070 3070 3071 3071 3071 3071 3070 3069 3069 3068 3067 3066 3066 3065 3064 3063 3061 3060 3059 3058 3056 3055 3054 3053 3051 3050 3049 3047 3046 3045 3044 3043 3042 3041 3041 3040 3039 3038 3037 3036 3034 3033 3031 3030 3029 3027 3026 3024 3022 3021 3019 3017 3015 3013 3011 3009 3007 3006
3066 3065 3065 3066 3067 3068 3068 3068 3068 3069 3069 3070 3070 3070 3070 3070 3069 3068 3068 3068 3068 3065 3060 3062 3065 3063 3063 3065 3067 3067 3067 3066 3065 3065 3064 3064 3063 3062 3062 3062 3061 3060 3059 3058 3057 3056 3054 3053 3051 3050 3049 3047 3046 3045 3044 3043 3042 3041 3040 3039 3038 3038 3037 3036 3035 3034 3033 3031 3030 3029 3027 3026 3024 3022 3020 3019 3017 3015 3013 3011 3010 3008 3006 3004 3002 3000
3062 3061 3062 3063 3063 3064 3065 3065 3065 3065 3065 3064 3065 3064 3063 3063 3063 3063 3063 3062 3062 3059 3057 3059 3059 3057 3058 3061 3061 3063 3062 3060 3059 3059 3059 3058 3058 3057 3057 3057 3056 3055 3054 3053 3052 3050 3049 3048 3047 3045 3044 3043 3042 3040 3040 3039 3038 3037 3036 3035 3034 3033 3032 3032 3031 3029 3028 3026 3025 3023 3022 3020 3018 3016 3014 3012 3011 3009 3007 3005 3003 3001 3000 2998 2996 2995
3058 3057 3058 3059 3059 3060 3060 3061 3062 3061 3060 3059 3059 3057 3057 3057 3057 3057 3055 3055 3055 3054 3053 3055 3053 3051 3054 3057 3056 3056 3056 3054 3054 3054 3053 3054 3053 3053 3052 3052 3051 3050 3049 3048 3047 3046 3044 3043 3042 3041 3040 3038 3038 3036 3035 3034 3034 3033 3032 3031 3030 3029 3028 3026 3025 3023 3022 3020 3019 3017 3015 3013 3012 3010 3008 3006 3004 3002 3000 2998 2996 2994 2993 2991 2990 2988
3054 3054 3054 3056 3056 3055 3055 3057 3058 3057 3056 3055 3050 3048 3050 3053 3052 3050 3049 3050 3050 3048 3049 3050 3048 3046 3051 3053 3051 3050 3050 3050 3050 3049 3048 3048 3048 3048 3047 3046 3045 3045 3044 3043 3042 3041 3040 3039 3037 3036 3035 3034 3033 3032 3031 3030 3029 3028 3027 3026 3025 3024 3022 3021 3019 3017 3015 3013 3012 3010 3008 3006 3004 3002 3000 2998 2997 2995 2993 2991 2989 2987 2986 2984 2982 2980
3050 3050 3051 3053 3053 3051 3052 3053 3053 3054 3054 3047 3040 3041 3047 3049 3047 3045 3045 3045 3045 3045 3044 3043 3042 3043 3046 3047 3046 3045 3046 3045 3044 3044 3043 3043 3043 3043 3042 3041 3040 3040 3039 3038 3037 3037 3035 3034 3033 3032 3031 3030 3029 3028 3027 3026 3025 3024 3023 3021 3020 3018 3017 3015 3013 3011 3009 3007 3005 3003 3001 2999 2997 2995 2993 2992 2990 2988 2987 2985 2983 2981 2979 2977 2975 2973
3046 3047 3048 3050 3050 3049 3049 3049 3051 3052 3045 3035 3034 3040 3044 3043 3042 3040 3039 3040 3041 3040 3039 3037 3038 3040 3041 3041 3041 3041 3041 3040 3039 3038 3038 3038 3038 3038 3037 3036 3035 3034 3034 3033 3032 3031 3030 3028 3027 3027 3026 3025 3024 3024 3023 3022 3021 3020 3018 3017 3015 3013 3011 3009 3007 3004 3002 3000 2998 2996 2995 2993 2991 2989 2987 2985 2983 2982 2980 2978 2976 2975 2972 2970 2968 2966
3043 3044 3045 3046 3047 3046 3046 3048 3049 3043 3033 3029 3034 3037 3038 3037 3037 3035 3033 3035 3036 3035 3034 3034 3034 3035 3036 3036 3036 3036 3035 3035 3034 3033 3033 3033 3034 3033 3032 3031 3031 3030 3029 3028 3027 3026 3025 3024 3023 3022 3021 3021 3020 3019 3018 3017 3016 3015 3013 3011 3009 3007 3005 3003 3001 2998 2997 2995 2993 2991 2989 2987 2985 2983 2981 2979 2977 2976 2974 2972 2970 2968 2966 2964 2962 2959
3039 3041 3042 3042 3043 3043 3043 3043 3039 3030 3026 3030 3032 3031 3032 3032 3031 3029 3028 3030 3032 3031 3029 3029 3030 3030 3032 3031 3031 3031 3030 3030 3029 3028 3028 3029 3029 3028 3027 3027 3026 3025 3024 3023 3022 3021 3021 3020 3019 3018 3018 3017 3016 3015 3013 3012 3011 3009 3007 3006 3004 3002 3000 2998 2996 2993 2991 2989 2987 2985 2983 2981 2979 2977 2975 2974 2972 2970 2968 2966 2964 2961 2959 2957 2954 2951
3035 3036 3037 3038 3038 3037 3036 3034 3030 3027 3027 3027 3026 3026 3028 3027 3025 3026 3024 3024 3027 3026 3024 3025 3026 3026 3027 3026 3026 3026 3026 3025 3024 3023 3023 3024 3024 3023 3023 3022 3021 3020 3019 3018 3018 3017 3017 3016 3015 3014 3013 3012 3011 3009 3008 3006 3005 3003 3002 3000 2999 2997 2995 2993 2991 2989 2986 2984 2982 2980 2978 2975 2973 2972 2970 2968 2966 2964 2962 2959 2957 2954 2951 2949 2946 2943
3030 3031 3033 3033 3032 3032 3032 3030 3029 3028 3023 3020 3020 3023 3024 3023 3022 3023 3020 3019 3022 3022 3019 3021 3022 3021 3021 3022 3021 3022 3022 3020 3019 3019 3020 3020 3019 3019 3018 3017 3016 3015 3015 3014 3014 3013 3012 3011 3011 3010 3008 3007 3006 3004 3002 3001 2999 2998 2997 2995 2994 2992 2990 2988 2986 2984 2981 2979 2977 2975 2972 2970 2968 2966 2964 2962 2960 2958 2956 2953 2950 2947 2944 2940 2938 2935
3025 3026 3028 3029 3028 3028 3027 3025 3024 3020 3015 3014 3017 3019 3020 3019 3019 3020 3018 3016 3017 3018 3016 3017 3018 3017 3017 3017 3017 3017 3017 3014 3014 3016 3017 3014 3013 3014 3013 3012 3011 3011 3010 3010 3009 3008 3007 3006 3005 3004 3003 3002 3000 2999 2997 2996 2994 2993 2991 2990 2988 2987 2985 2983 2981 2979 2976 2974 2972 2969 2967 2965 2963 2961 2959 2957 2955 2952 2950 2947 2944 2940 2937 2933 2930 2926
3020 3021 3023 3023 3021 3021 3021 3019 3017 3013 3010 3012 3014 3015 3015 3015 3016 3018 3016 3011 3011 3014 3013 3013 3013 3013 3013 3013 3012 3012 3012 3010 3010 3012 3011 3009 3008 3008 3007 3007 3007 3006 3005 3005 3004 3003 3002 3001 2999 2998 2997 2996 2995 2994 2992 2990 2989 2987 2986 2984 2983 2981 2979 2977 2975 2973 2971 2969 2967 2964 2962 2960 2958 2956 2954 2952 2949 2947 2944 2940 2937 2934 2930 2927 2922 2918
3015 3016 3017 3016 3015 3015 3015 3014 3011 3008 3007 3009 3011 3011 3013 3013 3013 3013 3009 3007 3009 3011 3010 3009 3009 3009 3009 3009 3007 3007 3006 3006 3006 3006 3005 3004 3003 3002 3002 3002 3002 3001 3000 2999 2998 2998 2997 2995 2994 2993 2992 2991 2990 2989 2987 2985 2984 2982 2980 2979 2977 2975 2973 2971 2969 2967 2965 2963 2961 2959 2957 2955 2953 2950 2948 2946 2943 2941 2938 2934 2930 2927 2923 2919 2915 2910
3010 3011 3012 3011 3010 3010 3010 3011 3009 3005 3004 3006 3007 3008 3009 3008 3007 3005 3005 3006 3007 3007 3006 3006 3005 3004 3004 3004 3002 3002 3002 3002 3001 3001 3000 3000 2998 2998 2997 2996 2996 2995 2995 2994 2993 2993 2992 2991 2990 2989 2987 2986 2985 2983 2982 2980 2978 2977 2975 2973 2972 2970 2968 2966 2964 2962 2960 2958 2956 2954 2952 2950 2947 2945 2943 2940 2937 2934 2931 2928 2923 2920 2916 2912 2907 2903
3005 3006 3006 3004 3005 3006 3007 3008 3005 3000 2999 3002 3003 3003 3003 3002 3001 3002 3003 3004 3003 3002 3002 3002 3000 3000 3000 2998 2998 2997 2997 2997 2997 2996 2995 2994 2993 2993 2993 2991 2990 2990 2989 2989 2988 2987 2986 2985 2984 2983 2982 2981 2980 2978 2977 2975 2973 2971 2970 2968 2966 2965 2962 2961 2959 2957 2955 2953 2951 2949 2947 2945 2942 2940 2937 2934 2931 2928 2925 2921 2917 2913 2909 2905 2900 2896
3001 3000 2999 2997 2998 2999 2999 2997 2994 2994 2996 2997 2997 2997 2998 2997 2998 2999 2999 2997 2997 2998 2997 2996 2995 2995 2995 2993 2993 2993 2992 2992 2992 2991 2991 2990 2989 2989 2988 2987 2986 2985 2984 2984 2983 2982 2981 2980 2979 2978 2977 2976 2975 2973 2972 2970 2968 2966 2964 2963 2961 2959 2957 2955 2954 2952 2950 2948 2946 2944 2942 2940 2938 2935 2932 2928 2925 2922 2918 2915 2911 2906 2902 2898 2893 2889
2995 2995 2994 2993 2992 2992 2990 2988 2989 2991 2993 2992 2992 2993 2994 2994 2994 2994 2993 2992 2993 2993 2992 2991 2991 2991 2990 2989 2989 2988 2988 2988 2987 2987 2986 2985 2985 2984 2983 2982 2981 2980 2979 2979 2978 2977 2976 2975 2974 2973 2972 2971 2970 2968 2966 2964 2963 2961 2959 2957 2956 2954 2952 2950 2948 2946 2945 2943 2941 2939 2937 2935 2933 2930 2926 2923 2919 2916 2912 2908 2904 2900 2896 2892 2887 2882
2991 2992 2990 2988 2988 2987 2986 2985 2986 2988 2988 2987 2988 2990 2990 2990 2990 2989 2988 2988 2988 2988 2988 2987 2986 2986 2986 2985 2984 2983 2983 2983 2983 2982 2982 2981 2981 2980 2979 2978 2977 2976 2975 2974 2973 2972 2971 2970 2969 2968 2967 2966 2964 2963 2961 2959 2957 2956 2954 2952 2950 2948 2947 2945 2943 2941 2940 2938 2936 2934 2932 2930 2927 2924 2921 2918 2914 2910 2906 2902 2898 2894 2890 2886 2881 2876
2988 2988 2986 2984 2984 2982 2981 2981 2983 2984 2984 2984 2985 2985 2985 2985 2985 2984 2984 2984 2984 2984 2983 2982 2982 2982 2982 2981 2980 2979 2979 2978 2978 2977 2977 2976 2976 2975 2974 2973 2972 2971 2970 2969 2968 2967 2966 2965 2964 2963 2961 2960 2959 2957 2956 2953 2952 2950 2949 2947 2945 2943 2941 2939 2937 2936 2935 2933 2931 2929 2927 2924 2922 2919 2916 2912 2909 2905 2901 2896 2892 2888 2884 2880 2875 2870
2983 2983 2980 2979 2978 2977 2977 2979 2980 2979 2979 2980 2981 2981 2981 2980 2980 2980 2980 2979 2979 2979 2978 2978 2978 2977 2977 2976 2975 2975 2974 2974 2973 2972 2972 2972 2971 2970 2969 2968 2967 2966 2965 2964 2963 2962 2961 2960 2959 2957 2956 2955 2953 2951 2950 2948 2946 2945 2943 2941 2939 2937 2936 2934 2932 2931 2930 2928 2926 2924 2922 2919 2916 2913 2910 2907 2903 2899 2895 2891 2887 2883 2880 2876 2870 2864
2979 2977 2974 2972 2972 2972 2973 2976 2977 2975 2975 2976 2977 2976 2976 2976 2975 2975 2975 2974 2974 2974 2973 2973 2973 2972 2972 2972 2971 2970 2969 2968 2968 2968 2967 2966 2966 2965 2964 2963 2962 2961 2960 2959 2958 2957 2956 2955 2954 2952 2951 2949 2947 2946 2944 2942 2940 2939 2937 2936 2934 2932 2930 2929 2928 2926 2925 2923 2921 2919 2916 2914 2911 2907 2904 2901 2898 2894 2890 2886 2882 2878 2875 2871 2866 2859
2973 2970 2968 2967 2965 2965 2968 2972 2973 2971 2970 2972 2972 2972 2971 2971 2970 2969 2969 2969 2969 2968 2968 2968 2968 2967 2967 2966 2966 2965 2964 2963 2963 2963 2962 2961 2961 2960 2959 2958 2957 2956 2955 2954 2953 2952 2951 2950 2949 2947 2946 2944 2942 2940 2938 2936 2934 2933 2932 2930 2928 2927 2925 2924 2923 2922 2920 2918 2916 2914 2911 2909 2905 2902 2899 2895 2892 2888 2885 2882 2879 2874 2869 2865 2861 2856
2966 2964 2963 2961 2959 2961 2964 2967 2967 2966 2965 2966 2967 2966 2966 2966 2965 2963 2963 2963 2963 2963 2963 2962 2962 2962 2961 2961 2961 2960 2958 2958 2958 2958 2957 2956 2956 2955 2954 2953 2952 2951 2949 2948 2947 2946 2946 2945 2943 2942 2940 2938 2937 2935 2933 2931 2929 2927 2926 2924 2923 2922 2920 2919 2918 2917 2915 2913 2911 2909 2906 2903 2900 2896 2893 2890 2886 2882 2879 2877 2875 2873 2868 2862 2856 2852